Regional Weather Roundup
Issued by NWS

Home | Current Version | Previous Version | Graphics & Text | Print | Product List | Glossary On
Versions: 1 2 3 4 5 6 7 8 9 10 11 12 13 14 15 16 17 18 19 20 21 22 23 24 25 26 27 28 29 30 31 32 33 34 35 36 37 38 39 40 41 42 43 44 45 46 47 48 49 50
000
ASUS43 KBIS 030210
RWRND

NORTH DAKOTA REGIONAL WEATHER ROUNDUP
NATIONAL WEATHER SERVICE BISMARCK ND
800 PM CST MON MAR 02 2015

NOTE: "FAIR" INDICATES FEW OR NO CLOUDS BELOW 12,000 FEET WITH NO
SIGNIFICANT WEATHER AND/OR OBSTRUCTIONS TO VISIBILITY.


NDZ001>003-009>011-017-030300-
NORTHWEST NORTH DAKOTA

CITY           SKY/WX    TMP DP  RH WIND       PRES   REMARKS
WILLISTON      MOCLDY    20  12  71 N20G29    29.88R WCI   4
MINOT          MOCLDY    28  17  63 NW20      29.75R WCI  15
MINOT AFB      MOCLDY    25  21  85 NW21      29.75R WCI  11
$$

NDZ018>021-031>035-040>046-030300-
SOUTHWEST NORTH DAKOTA

CITY           SKY/WX    TMP DP  RH WIND       PRES   REMARKS
BISMARCK       PTCLDY    29  22  75 SE5       29.73S
DICKINSON      MOCLDY    33  17  51 N12       29.72R
GARRISON         N/A     24  17  74 NW10      29.74R WCI  14
HETTINGER ARPT CLOUDY    25  14  63 NW8       29.72S WCI  16
$$

NDZ004>008-012>016-024-026-027-054-030300-
NORTHEAST NORTH DAKOTA

CITY           SKY/WX    TMP DP  RH WIND       PRES   REMARKS
GRAND FORKS    PTCLDY    26  17  68 S23       29.83F WCI  11
GRND FRKS AFB  CLEAR     26  17  70 S16G30    29.81F WCI  13
DEVILS LAKE    CLEAR     27  19  74 S14       29.74F WCI  15
$$

NDZ022-023-025-028>030-036>039-047>053-030300-
SOUTHEAST NORTH DAKOTA

CITY           SKY/WX    TMP DP  RH WIND       PRES   REMARKS
FARGO          MOCLDY    28  17  63 S25G39    29.89F WCI  13
JAMESTOWN      PTCLDY    26  18  71 S16       29.76F WCI  14
$$



USA.gov is the U.S. government's official web portal to all federal, state and local government web resources and services.